FW6583 Weather Reports


Display with metric or nautical units.
time (UTC)temp
F
wind
direction
speed
MPH
gust
MPH
rain 1hr
in
rain 24hr
in
rain mn
in
humidity
%
barometer
mb
20260510172031 60 0 0.0 0.0 0.00 0.03 0.03 88 1018.4
20260510171539 60 0 0.0 0.0 0.00 0.03 0.03 89 1018.4
20260510171025 60 0 0.0 0.0 0.00 0.03 0.03 90 1018.3
20260510170523 60 0 0.0 0.0 0.00 0.03 0.03 89 1018.2
20260510170046 60 0 0.0 0.0 0.00 0.03 0.03 90 1018.2
20260510165523 60 0 0.0 0.0 0.01 0.03 0.03 90 1018.2
20260510165027 60 0 0.0 0.0 0.03 0.03 0.03 90 1018.2
20260510164553 60 0 0.0 0.0 0.03 0.03 0.03 91 1018.2
20260510164025 60 0 0.0 0.0 0.03 0.03 0.03 90 1018.1
20260510163523 60 0 0.0 0.0 0.03 0.03 0.03 90 1018.2
20260510163042 60 0 0.0 0.0 0.03 0.03 0.03 90 1018.0
20260510162523 60 0 0.0 0.0 0.03 0.03 0.03 89 1018.1
20260510162023 60 0 0.0 0.0 0.03 0.03 0.03 89 1018.0
20260510161544 60 0 0.0 0.0 0.03 0.03 0.03 88 1018.3
20260510161026 61 0 0.0 0.0 0.03 0.03 0.03 87 1018.2
20260510160523 61 0 0.0 0.0 0.03 0.03 0.03 84 1018.1
20260510160043 62 0 0.0 0.0 0.03 0.03 0.03 83 1018.2
20260510155523 63 0 0.0 0.0 0.02 0.02 0.02 81 1018.3
20260510155023 63 0 0.0 0.0 0.00 0.00 0.00 78 1018.4
20260510154539 64 0 0.0 0.0 0.00 0.00 0.00 76 1018.2
20260510154025 64 0 0.0 0.0 0.00 0.00 0.00 76 1018.1
20260510153526 64 0 0.0 0.0 0.00 0.00 0.00 75 1018.0
20260510153038 64 0 0.0 0.0 0.00 0.00 0.00 75 1018.0
20260510152527 64 0 0.0 0.0 0.00 0.00 0.00 75 1018.0
20260510152025 64 0 0.0 0.0 0.00 0.00 0.00 77 1018.0
20260510151549 64 0 0.0 0.0 0.00 0.00 0.00 77 1018.0
20260510151026 64 0 0.0 0.0 0.00 0.00 0.00 77 1017.7
20260510150526 64 0 0.0 0.0 0.00 0.00 0.00 77 1017.9
20260510150053 64 0 0.0 0.0 0.00 0.00 0.00 76 1017.9
20260510145526 64 0 0.0 0.0 0.00 0.01 0.00 78 1017.8
20260510145023 63 0 0.0 0.0 0.00 0.01 0.00 78 1017.7
20260510144605 63 0 0.0 0.0 0.00 0.01 0.00 79 1017.9
20260510144023 63 0 0.0 0.0 0.00 0.01 0.00 78 1017.5
20260510143523 63 0 0.0 0.0 0.00 0.01 0.00 77 1017.5
20260510143040 63 0 0.0 0.0 0.00 0.01 0.00 78 1017.4
20260510142523 63 0 0.0 0.0 0.00 0.01 0.00 79 1017.3
20260510142026 62 0 0.0 0.0 0.00 0.01 0.00 79 1017.2
20260510141539 62 0 0.0 0.0 0.00 0.01 0.00 78 1017.2
20260510141024 62 0 0.0 0.0 0.00 0.01 0.00 79 1017.2
20260510140527 62 0 0.0 0.0 0.00 0.01 0.00 79 1017.4
20260510140038 61 0 0.0 0.0 0.00 0.01 0.00 79 1017.3
20260510135523 61 0 0.0 0.0 0.00 0.03 0.00 80 1017.3
20260510135024 61 0 0.0 0.0 0.00 0.03 0.00 80 1017.2
20260510134548 61 0 0.0 0.0 0.00 0.03 0.00 80 1017.4
20260510134026 61 0 0.0 0.0 0.00 0.03 0.00 82 1017.4
20260510133526 60 0 0.0 0.0 0.00 0.03 0.00 82 1017.4
20260510133047 60 0 0.0 0.0 0.00 0.03 0.00 82 1017.4
20260510132527 60 0 0.0 0.0 0.00 0.03 0.00 83 1017.4
20260510132026 60 0 0.0 0.0 0.00 0.03 0.00 83 1017.3
20260510131544 59 0 0.0 0.0 0.00 0.03 0.00 83 1017.2
20260510131022 59 0 0.0 0.0 0.00 0.03 0.00 83 1017.1
20260510130524 59 0 0.0 0.0 0.00 0.03 0.00 83 1017.0
20260510130045 59 0 0.0 0.0 0.00 0.03 0.00 84 1017.0
20260510125525 59 0 0.0 0.0 0.00 0.06 0.00 84 1017.0
20260510125023 58 0 0.0 0.0 0.00 0.06 0.00 85 1017.1
20260510124539 58 0 0.0 0.0 0.00 0.06 0.00 84 1017.0
20260510124023 58 0 0.0 0.0 0.00 0.06 0.00 85 1017.0
20260510123523 57 0 0.0 0.0 0.00 0.06 0.00 85 1017.0
20260510123043 57 0 0.0 0.0 0.00 0.06 0.00 86 1017.0
20260510122522 57 0 0.0 0.0 0.00 0.06 0.00 86 1016.8
20260510122022 56 0 0.0 0.0 0.00 0.06 0.00 87 1016.8
20260510121545 56 0 0.0 0.0 0.00 0.06 0.00 88 1016.5
20260510121026 56 0 0.0 0.0 0.00 0.06 0.00 88 1016.6
20260510120522 55 0 0.0 0.0 0.00 0.06 0.00 89 1016.5
20260510120042 55 0 0.0 0.0 0.00 0.06 0.00 90 1016.7
20260510115526 55 0 0.0 0.0 0.00 0.08 0.00 90 1016.5
20260510115026 54 0 0.0 0.0 0.00 0.08 0.00 90 1016.5
20260510114605 54 0 0.0 0.0 0.00 0.08 0.00 90 1016.3
20260510114022 54 0 0.0 0.0 0.00 0.08 0.00 90 1016.2
20260510113526 54 0 0.0 0.0 0.00 0.08 0.00 90 1016.1
20260510113052 54 0 0.0 0.0 0.00 0.08 0.00 90 1016.1
20260510112525 54 0 0.0 0.0 0.00 0.08 0.00 90 1015.9
20260510112025 54 0 0.0 0.0 0.00 0.08 0.00 91 1015.8
20260510111543 54 0 0.0 0.0 0.00 0.08 0.00 90 1016.0
20260510111022 54 0 0.0 0.0 0.00 0.08 0.00 90 1015.9
20260510110528 54 0 0.0 0.0 0.00 0.08 0.00 90 1015.8
20260510110041 54 0 0.0 0.0 0.00 0.08 0.00 90 1015.7
20260510105523 54 0 0.0 0.0 0.00 0.10 0.00 90 1015.6
20260510105023 54 0 0.0 0.0 0.00 0.10 0.00 90 1015.4
20260510104554 54 0 0.0 0.0 0.00 0.10 0.00 89 1015.5
20260510104023 54 0 0.0 0.0 0.00 0.10 0.00 89 1015.4
20260510103523 54 0 0.0 0.0 0.00 0.10 0.00 89 1015.2
20260510103043 54 0 0.0 0.0 0.00 0.10 0.00 88 1015.2
20260510102523 55 0 0.0 0.0 0.00 0.10 0.00 89 1014.7
20260510102023 54 0 0.0 0.0 0.00 0.10 0.00 89 1014.7
20260510101543 54 0 0.0 0.0 0.00 0.10 0.00 88 1014.9
20260510101026 54 0 0.0 0.0 0.00 0.10 0.00 89 1014.8
20260510100526 54 0 0.0 0.0 0.00 0.10 0.00 89 1014.7
20260510100056 54 0 0.0 0.0 0.00 0.10 0.00 89 1014.7
20260510095525 54 0 0.0 0.0 0.00 0.13 0.00 89 1014.5
20260510095025 54 0 0.0 0.0 0.00 0.13 0.00 89 1014.7
20260510094550 54 0 0.0 0.0 0.00 0.13 0.00 89 1014.7
20260510094021 54 0 0.0 0.0 0.00 0.13 0.00 89 1014.6
20260510093526 54 0 0.0 0.0 0.00 0.13 0.00 88 1014.5
20260510093045 54 0 0.0 0.0 0.00 0.13 0.00 88 1014.6
20260510092525 55 0 0.0 0.0 0.00 0.13 0.00 88 1014.5
20260510092022 55 0 0.0 0.0 0.00 0.13 0.00 88 1014.5
20260510091543 55 0 0.0 0.0 0.00 0.13 0.00 88 1014.5
20260510091027 55 0 0.0 0.0 0.00 0.13 0.00 88 1014.4
20260510090523 55 0 0.0 0.0 0.00 0.13 0.00 88 1014.4
20260510090044 55 0 0.0 0.0 0.00 0.13 0.00 87 1014.4
20260510085523 55 0 0.0 0.0 0.00 0.15 0.00 87 1014.5
20260510085022 55 0 0.0 0.0 0.00 0.15 0.00 87 1014.2
20260510084542 55 0 0.0 0.0 0.00 0.15 0.00 87 1014.2
20260510084022 55 0 0.0 0.0 0.00 0.15 0.00 87 1014.2
20260510083522 55 0 0.0 0.0 0.00 0.15 0.00 87 1014.3
20260510083043 55 0 0.0 0.0 0.00 0.15 0.00 86 1014.0
20260510082527 55 0 0.0 0.0 0.00 0.15 0.00 86 1014.1
20260510082022 56 0 0.0 0.0 0.00 0.15 0.00 86 1014.0
20260510081546 56 0 0.0 0.0 0.00 0.15 0.00 86 1014.0
20260510081022 56 0 0.0 0.0 0.00 0.15 0.00 85 1014.1
20260510080525 56 0 0.0 0.0 0.00 0.15 0.00 85 1014.2
20260510080051 56 0 0.0 0.0 0.00 0.15 0.00 86 1014.1
20260510075528 56 0 0.0 0.0 0.00 0.15 0.00 86 1013.9
20260510075024 56 0 0.0 0.0 0.00 0.15 0.00 85 1013.9
20260510074546 56 0 0.0 0.0 0.00 0.15 0.00 85 1013.9
20260510074026 56 0 0.0 0.0 0.00 0.15 0.00 85 1013.9
20260510073524 56 0 0.0 0.0 0.00 0.15 0.00 86 1013.9
20260510073048 56 0 0.0 0.0 0.00 0.15 0.00 85 1013.8
20260510072525 56 0 0.0 0.0 0.00 0.15 0.00 86 1013.9
20260510072028 56 0 0.0 0.0 0.00 0.15 0.00 85 1013.9
20260510071543 56 0 0.0 0.0 0.00 0.15 0.00 85 1013.9
20260510071024 56 0 0.0 0.0 0.00 0.15 0.00 85 1014.1
20260510070524 56 0 0.0 0.0 0.00 0.15 0.00 85 1013.9
20260510070052 56 0 0.0 0.0 0.00 0.15 0.00 84 1013.8
20260510065524 56 0 0.0 0.0 0.00 0.15 0.00 84 1013.9
20260510065024 56 0 0.0 0.0 0.00 0.15 0.00 84 1013.9
20260510064555 57 0 0.0 0.0 0.00 0.15 0.00 84 1013.8
20260510064023 57 0 0.0 0.0 0.00 0.15 0.00 84 1013.9
20260510063524 57 0 0.0 0.0 0.00 0.15 0.00 83 1013.9
20260510063046 57 0 0.0 0.0 0.00 0.15 0.00 83 1013.9
20260510062523 57 0 0.0 0.0 0.00 0.15 0.00 84 1014.0
20260510062023 57 0 0.0 0.0 0.00 0.15 0.00 84 1013.9
20260510061543 57 0 0.0 0.0 0.00 0.15 0.00 83 1014.1
20260510061027 57 0 0.0 0.0 0.00 0.15 0.00 83 1014.1
20260510060525 57 0 0.0 0.0 0.00 0.15 0.00 83 1014.1
20260510060044 57 0 0.0 0.0 0.00 0.15 0.00 82 1014.1
20260510055527 57 0 0.0 0.0 0.00 0.15 0.00 83 1014.0
20260510055024 57 0 0.0 0.0 0.00 0.15 0.00 83 1014.0
20260510054549 57 0 0.0 0.0 0.00 0.15 0.00 82 1014.0
20260510054027 57 0 0.0 0.0 0.00 0.15 0.00 82 1014.0
20260510053530 57 0 0.0 0.0 0.00 0.15 0.00 82 1014.2
20260510053039 57 0 0.0 0.0 0.00 0.15 0.00 82 1014.1
20260510052526 57 0 0.0 0.0 0.00 0.15 0.00 82 1014.2
20260510052026 57 0 0.0 0.0 0.00 0.15 0.00 82 1014.2
20260510051548 57 0 0.0 0.0 0.00 0.15 0.00 82 1014.2
20260510051025 57 0 0.0 0.0 0.00 0.15 0.00 83 1014.2
20260510050526 57 0 0.0 0.0 0.00 0.15 0.00 82 1014.2
20260510050049 58 0 0.0 0.0 0.00 0.15 0.00 82 1014.2
20260510045526 58 0 0.0 0.0 0.00 0.15 0.00 82 1014.2
20260510045024 58 0 0.0 0.0 0.00 0.15 0.00 81 1014.1
20260510044549 58 0 0.0 0.0 0.00 0.15 0.00 81 1014.1
20260510044026 58 0 0.0 0.0 0.00 0.15 0.00 81 1014.2
20260510043527 58 0 0.0 0.0 0.00 0.15 0.00 81 1014.0
20260510043042 58 0 0.0 0.0 0.00 0.15 0.00 81 1014.0
20260510042526 58 0 0.0 0.0 0.00 0.15 0.00 80 1014.0
20260510042024 58 0 0.0 0.0 0.00 0.15 0.00 80 1013.9
20260510041549 58 0 0.0 0.0 0.00 0.15 0.00 80 1013.9
20260510041023 58 0 0.0 0.0 0.00 0.15 0.00 80 1013.9
20260510040523 58 0 0.0 0.0 0.00 0.15 0.00 80 1013.9
20260510040041 58 0 0.0 0.0 0.00 0.15 0.00 80 1013.8
20260510035524 58 0 0.0 0.0 0.00 0.15 0.15 80 1013.8
20260510035026 58 0 0.0 0.0 0.00 0.15 0.15 80 1013.8
20260510034539 58 0 0.0 0.0 0.00 0.15 0.15 80 1013.8
20260510034023 58 0 0.0 0.0 0.00 0.15 0.15 80 1013.7
20260510033523 58 0 0.0 0.0 0.00 0.15 0.15 79 1013.6
20260510033053 58 0 0.0 0.0 0.00 0.15 0.15 79 1013.6
20260510032526 58 0 0.0 0.0 0.00 0.15 0.15 79 1013.6
20260510032024 58 0 0.0 0.0 0.00 0.15 0.15 79 1013.5
20260510031543 58 0 0.0 0.0 0.00 0.15 0.15 79 1013.5
20260510031023 58 0 0.0 0.0 0.00 0.15 0.15 79 1013.5
20260510030526 58 0 0.0 0.0 0.00 0.15 0.15 79 1013.4
20260510030041 58 0 0.0 0.0 0.00 0.15 0.15 79 1013.4
20260510025528 58 0 0.0 0.0 0.00 0.15 0.15 79 1013.3
20260510025027 58 0 0.0 0.0 0.00 0.15 0.15 79 1013.3
20260510024546 58 0 0.0 0.0 0.00 0.15 0.15 78 1013.3
20260510024024 58 0 0.0 0.0 0.00 0.15 0.15 78 1013.3
20260510023524 58 0 0.0 0.0 0.00 0.15 0.15 78 1013.3
20260510023042 58 0 0.0 0.0 0.00 0.15 0.15 78 1013.1
20260510022526 58 0 0.0 0.0 0.00 0.15 0.15 78 1013.2
20260510022024 59 0 0.0 0.0 0.00 0.15 0.15 77 1013.1
20260510021547 59 0 0.0 0.0 0.00 0.15 0.15 77 1013.2
20260510021023 59 0 0.0 0.0 0.00 0.15 0.15 77 1013.1
20260510020524 59 0 0.0 0.0 0.00 0.15 0.15 76 1013.0
20260510020045 59 0 0.0 0.0 0.00 0.15 0.15 76 1013.0
20260510015523 59 0 0.0 0.0 0.00 0.15 0.15 76 1012.9
20260510015029 59 0 0.0 0.0 0.00 0.15 0.15 75 1012.9
20260510014543 59 0 0.0 0.0 0.00 0.15 0.15 75 1012.6
20260510014025 59 0 0.0 0.0 0.00 0.15 0.15 75 1012.7
20260510013524 60 0 0.0 0.0 0.00 0.15 0.15 75 1012.6
20260510013044 60 0 0.0 0.0 0.00 0.15 0.15 75 1012.4
20260510012525 60 0 0.0 0.0 0.00 0.15 0.15 75 1012.5
20260510012023 60 0 0.0 0.0 0.00 0.15 0.15 74 1012.3
20260510011541 60 0 0.0 0.0 0.00 0.15 0.15 75 1012.4
20260510011025 60 0 0.0 0.0 0.00 0.15 0.15 74 1012.2
20260510010525 60 0 0.0 0.0 0.00 0.15 0.15 74 1012.3
20260510010049 60 0 0.0 0.0 0.00 0.15 0.15 73 1012.2
20260510005524 60 0 0.0 0.0 0.00 0.15 0.15 73 1012.2
20260510005025 61 0 0.0 0.0 0.00 0.15 0.15 73 1012.1
20260510004539 61 0 0.0 0.0 0.00 0.15 0.15 72 1012.1
20260510004024 61 0 0.0 0.0 0.00 0.15 0.15 72 1012.1
20260510003525 61 0 0.0 0.0 0.00 0.15 0.15 71 1011.9
20260510003057 62 0 0.0 0.0 0.00 0.15 0.15 70 1011.9
20260510002525 62 0 0.0 0.0 0.00 0.15 0.15 70 1011.8
20260510002023 62 0 0.0 0.0 0.00 0.15 0.15 69 1011.7
20260510001547 63 0 0.0 0.0 0.00 0.15 0.15 68 1011.8
20260510001025 63 0 0.0 0.0 0.00 0.15 0.15 68 1011.7
20260510000525 63 0 0.0 0.0 0.00 0.15 0.15 67 1011.5
20260510000052 63 0 0.0 0.0 0.00 0.15 0.15 67 1011.5
20260509235523 64 0 0.0 0.0 0.00 0.15 0.15 68 1011.5
20260509235032 64 0 0.0 0.0 0.00 0.15 0.15 69 1011.4
20260509234553 64 0 0.0 2.0 0.00 0.15 0.15 66 1011.3
20260509234027 64 0 0.0 2.0 0.00 0.15 0.15 66 1011.3
20260509233523 64 215 0.0 1.0 0.00 0.15 0.15 67 1011.4
20260509233039 64 345 0.0 2.0 0.00 0.15 0.15 68 1011.3
20260509232524 65 24 1.0 3.0 0.00 0.15 0.15 65 1011.3
20260509232025 65 0 0.0 5.0 0.00 0.15 0.15 68 1011.2
20260509231539 65 285 1.0 5.0 0.00 0.15 0.15 65 1011.3
20260509231024 65 0 1.0 5.0 0.00 0.15 0.15 65 1011.4
20260509230524 65 239 0.0 5.0 0.00 0.15 0.15 66 1011.4
20260509230039 65 28 1.0 5.0 0.00 0.15 0.15 65 1011.4
20260509225523 65 53 2.0 4.0 0.00 0.15 0.15 66 1011.5
20260509225025 65 360 1.0 3.0 0.00 0.15 0.15 68 1011.5
20260509224537 66 230 2.0 5.0 0.00 0.15 0.15 63 1011.5
20260509224025 66 293 1.0 5.0 0.00 0.15 0.15 67 1011.5
20260509223525 66 249 1.0 4.0 0.00 0.15 0.15 63 1011.7
20260509223049 66 276 2.0 6.0 0.00 0.15 0.15 62 1011.7
20260509222536 66 15 1.0 6.0 0.00 0.15 0.15 62 1011.7
20260509222027 66 146 2.0 6.0 0.00 0.15 0.15 62 1011.7
20260509221541 66 238 1.0 4.0 0.00 0.15 0.15 63 1011.7
20260509221026 66 0 1.0 4.0 0.00 0.15 0.15 65 1011.7
20260509220523 66 291 1.0 4.0 0.00 0.15 0.15 68 1011.7
20260509220057 66 356 0.0 4.0 0.00 0.15 0.15 66 1011.7
20260509215524 66 218 1.0 3.0 0.00 0.15 0.15 63 1011.8
20260509215026 66 0 0.0 3.0 0.00 0.15 0.15 64 1011.7
20260509214546 66 115 1.0 4.0 0.00 0.15 0.15 66 1011.7
20260509214024 66 338 2.0 5.0 0.00 0.15 0.15 63 1011.7
20260509213527 66 301 2.0 5.0 0.00 0.15 0.15 63 1011.7
20260509213041 66 17 3.0 5.0 0.00 0.15 0.15 62 1011.8
20260509212524 66 259 1.0 5.0 0.00 0.15 0.15 65 1011.8
20260509212023 66 15 1.0 5.0 0.00 0.15 0.15 63 1011.7
20260509211545 66 241 1.0 4.0 0.00 0.15 0.15 64 1011.7
20260509211024 66 47 1.0 4.0 0.00 0.15 0.15 65 1011.7
20260509210524 66 312 2.0 4.0 0.00 0.15 0.15 62 1011.7
20260509210042 66 323 1.0 4.0 0.00 0.15 0.15 62 1011.7
20260509205522 66 248 1.0 5.0 0.00 0.15 0.15 62 1011.7
20260509205023 67 303 2.0 5.0 0.00 0.15 0.15 62 1011.8
20260509204555 67 34 2.0 5.0 0.00 0.15 0.15 61 1011.6
20260509204026 67 308 1.0 5.0 0.00 0.15 0.15 66 1011.7
20260509203527 67 34 3.0 5.0 0.00 0.15 0.15 62 1011.8
20260509203047 68 214 0.0 4.0 0.00 0.15 0.15 66 1011.8
20260509202524 67 0 1.0 4.0 0.00 0.15 0.15 66 1011.8
20260509202026 66 103 1.0 4.0 0.00 0.15 0.15 69 1011.9
20260509201541 65 58 0.0 2.0 0.00 0.15 0.15 68 1012.0
20260509201023 64 0 1.0 3.0 0.00 0.15 0.15 68 1012.0
20260509200523 65 0 1.0 3.0 0.00 0.15 0.15 68 1012.0
20260509200045 65 80 1.0 4.0 0.00 0.15 0.15 67 1012.1
20260509195524 65 34 2.0 4.0 0.00 0.15 0.15 69 1012.2
20260509195026 65 44 1.0 3.0 0.00 0.15 0.15 69 1012.2
20260509194545 64 333 1.0 3.0 0.00 0.15 0.15 72 1012.4
20260509194023 64 307 0.0 4.0 0.00 0.15 0.15 71 1012.4
20260509193524 64 25 2.0 5.0 0.00 0.15 0.15 70 1012.4
20260509193046 64 330 1.0 5.0 0.00 0.15 0.15 71 1012.3
20260509192527 63 13 2.0 5.0 0.00 0.15 0.15 73 1012.3
20260509192027 63 17 2.0 4.0 0.00 0.15 0.15 73 1012.4
20260509191551 63 356 1.0 2.0 0.00 0.15 0.15 76 1012.4
20260509191026 62 312 1.0 2.0 0.00 0.15 0.15 79 1012.4
20260509190527 62 0 0.0 2.0 0.00 0.15 0.15 80 1012.5
20260509190047 61 311 0.0 2.0 0.00 0.15 0.15 81 1012.4
20260509185529 61 40 0.0 2.0 0.00 0.15 0.15 81 1012.5
20260509185030 60 15 0.0 1.0 0.00 0.15 0.15 82 1012.5
20260509184542 60 0 0.0 1.0 0.00 0.15 0.15 84 1012.4
20260509184027 59 0 0.0 2.0 0.00 0.15 0.15 84 1012.4
20260509183526 59 21 0.0 2.0 0.00 0.15 0.15 85 1012.4
20260509183042 59 349 0.0 2.0 0.00 0.15 0.15 88 1012.5
20260509182523 59 0 0.0 2.0 0.00 0.15 0.15 87 1012.4
20260509182024 58 0 0.0 0.0 0.00 0.15 0.15 89 1012.4
20260509181543 58 0 0.0 0.0 0.00 0.15 0.15 90 1012.5
20260509181027 58 0 0.0 0.0 0.00 0.15 0.15 89 1012.4
20260509180529 58 0 0.0 0.0 0.00 0.15 0.15 93 1012.5
20260509180042 58 0 0.0 0.0 0.00 0.15 0.15 93 1012.5
20260509175525 57 0 0.0 0.0 0.00 0.15 0.15 93 1012.5
20260509175028 57 0 0.0 0.0 0.00 0.15 0.15 94 1012.5
20260509174551 56 0 0.0 0.0 0.00 0.15 0.15 94 1012.5
20260509174022 56 0 0.0 0.0 0.00 0.15 0.15 95 1012.6
20260509173523 56 0 0.0 0.0 0.00 0.15 0.15 94 1012.6
20260509173049 55 0 0.0 0.0 0.00 0.15 0.15 94 1012.7
20260509172526 55 0 0.0 0.0 0.00 0.15 0.15 94 1012.7